Simultaneous Nadir Overpasses (SNOs) Predictions

Prediction of SNOs between METOP-B and TERRA Satellite Orbit:

Table of predicted SNOs for the next 14.0 days since TLE Epoch: 11/25/2017
Index Date (METOP-B) Time (METOP-B) Lat,Lon (METOP-B) SZA (METOP-B ) Date (TERRA) Time (TERRA) Lat,Lon (TERRA) SZA (TERRA ) Distance(km) Time Diff (sec)
1 11/25/2017 14:18:06 81.31, 13.13 105.21 11/25/2017 14:18:17 81.32, 13.21 105.22 1.54 11
2 11/25/2017 15:08:46 -81.31,-179.37 74.77 11/25/2017 15:07:44 -81.32,-179.23 74.79 2.29 62
3 11/28/2017 09:52:29 81.31, 79.60 105.70 11/28/2017 09:52:31 81.32, 79.68 105.71 1.65 2
4 11/28/2017 10:43:09 -81.31,-112.86 74.28 11/28/2017 10:41:58 -81.32,-112.74 74.30 2.00 71
5 12/01/2017 04:36:11 -81.31, -21.66 73.92 12/01/2017 04:37:18 -81.31, -21.68 73.89 0.59 67
6 12/01/2017 05:26:51 81.31, 146.05 106.13 12/01/2017 05:26:44 81.32, 146.03 106.13 0.52 7
7 12/04/2017 00:10:35 -81.30, 44.43 73.59 12/04/2017 00:11:32 -81.30, 44.57 73.55 2.38 57
8 12/04/2017 01:01:15 81.31,-147.90 106.46 12/04/2017 01:00:58 81.30,-147.74 106.47 2.77 17
9 12/06/2017 19:44:58 -81.30, 110.89 73.27 12/06/2017 19:45:45 -81.30, 111.06 73.23 2.99 47




NCC Satellite Simultaneous Nadir Overpasses (SNOs) Prediction Service
